Location: Katowice
(50.2611°N, 19.0242°E)
Time: 12:33:00
(UTC+02:00)

Transit 4A - Visible Passes

Search period start: 17 July 2019 00:00
Search period end: 27 July 2019 00:00
Orbit: 862 x 982 km, 66.8° (Epoch: 16 July)

Date Brightness Start Highest point End Pass type
(mag) Time Alt. Az. Time Alt. Az. Time Alt. Az.
17 Jul 9.1 02:36:03 14° S 02:40:48 35° ESE 02:46:32 10° NE visible
18 Jul 8.6 02:45:15 17° S 02:49:58 49° ESE 02:56:07 10° NE visible
19 Jul 10.0 01:10:55 10° SE 01:13:59 14° E 01:17:07 10° ENE visible
19 Jul 8.2 02:54:26 18° SSW 02:59:13 67° ESE 03:05:36 10° NE visible
20 Jul 9.6 01:20:04 15° SE 01:22:57 21° ESE 01:27:29 10° ENE visible
20 Jul 8.0 03:03:34 18° SW 03:08:32 89° SE 03:15:01 10° NE visible
21 Jul 9.2 01:29:10 21° SSE 01:32:00 29° ESE 01:37:23 10° NE visible
21 Jul 8.2 03:12:40 16° SW 03:17:56 71° NW 03:24:24 10° NE visible
22 Jul 8.7 01:38:14 26° SSE 01:41:08 40° ESE 01:47:03 10° NE visible
22 Jul 8.5 03:21:44 13° WSW 03:27:25 55° NW 03:33:44 10° NNE visible
23 Jul 10.0 00:04:01 10° ESE 00:05:20 11° E 00:06:39 10° E visible
23 Jul 8.3 01:47:15 30° S 01:50:20 55° ESE 01:56:36 10° NE visible
23 Jul 8.9 03:30:54 10° WSW 03:36:58 43° NW 03:43:05 10° NNE visible
24 Jul 9.7 00:12:45 15° ESE 00:14:15 16° ESE 00:18:00 10° ENE visible
24 Jul 8.0 01:56:14 30° SSW 01:59:37 75° ESE 02:06:03 10° NE visible
24 Jul 9.2 03:40:47 10° W 03:46:35 35° NW 03:52:24 10° NNE visible
25 Jul 9.3 00:21:41 21° SE 00:23:16 23° ESE 00:28:09 10° ENE visible
25 Jul 8.0 02:05:11 27° SW 02:08:58 84° NW 02:15:27 10° NE visible
25 Jul 9.5 03:50:47 10° W 03:56:17 29° NNW 04:01:47 10° NNE visible
26 Jul 8.9 00:30:36 28° SE 00:32:20 33° ESE 00:37:57 10° NE visible
26 Jul 8.3 02:14:06 22° SW 02:18:24 64° NW 02:24:49 10° NE visible
26 Jul 9.8 04:00:53 10° WNW 04:06:03 24° NNW 04:11:11 10° NNE visible
